Dewpoint
17 14 11 5 6 12 11 10 9 14 16 15 14 12 6 6 6 5 -4 -3 -3 4 17 21 20 20 23 23 24 25 26 26 27 28 28 29 30 32 33 33 35 35 38 39
15 14 11 9 5 13 11 5 10 14 13 12 10 10 7 5 6 2 -5 -2 -2 7 18 21 20 20 25 24 25 25 26 27 27 29 29 30 31 32 33 34 34 35 37 38
13 9 11 9 3 5 10 2 -1 4 13 9 7 8 5 5 6 1 -5 -1 -1 9 18 21 20 21 25 24 26 25 26 27 28 29 29 31 32 32 32 33 34 36 36 34
11 6 5 7 4 2 5 3 1 3 10 8 7 1 10 7 3 -4 -7 -1 -0 11 20 22 20 22 24 25 26 26 26 27 28 29 29 30 30 30 31 32 34 35 35 34
14 10 7 4 5 3 2 14 12 12 11 10 12 6 6 2 -1 -4 -6 0 1 12 21 22 21 24 25 26 26 27 27 28 29 29 29 30 30 30 30 32 32 33 34 35
12 11 8 3 5 4 8 12 14 13 11 9 10 2 4 -1 -1 -3 -2 2 2 13 21 23 22 26 26 25 26 26 27 28 28 29 29 29 29 29 29 31 32 33 34 35
12 11 10 3 2 7 3 4 6 9 7 -1 2 -1 1 2 2 0 3 3 3 15 22 23 23 26 26 25 25 26 27 28 28 29 29 29 29 29 29 29 32 32 33 35
13 13 9 3 -1 1 -2 4 -0 -1 -2 -6 5 0 5 4 3 -1 3 4 4 17 23 24 24 25 25 24 25 26 27 27 28 29 30 29 29 29 29 28 30 31 32 34
10 13 9 4 -1 1 0 3 4 1 1 -1 0 1 3 4 1 -3 1 4 3 17 23 24 23 24 24 24 25 26 26 27 28 29 29 28 28 30 30 29 28 30 31 32
12 12 10 9 6 3 2 2 4 3 10 3 -6 -10 -8 2 -1 -3 -0 3 3 17 23 23 23 24 24 24 25 25 26 27 27 28 29 28 29 31 31 30 26 28 30 32
12 12 12 11 10 7 4 1 2 3 -3 -1 -2 -5 -6 -1 1 -0 1 3 3 18 23 22 23 24 23 24 24 25 26 27 28 28 28 29 29 30 30 27 26 26 28 30
13 14 11 10 7 6 5 2 -1 10 18 1 10 5 -2 1 3 5 3 4 4 18 24 23 24 24 24 23 24 25 26 27 28 28 27 29 30 28 27 26 26 25 26 29
15 14 13 12 10 10 10 7 2 8 7 16 12 5 -0 3 4 1 4 5 5 18 23 23 24 26 26 24 24 25 26 27 28 28 26 29 30 28 27 27 27 25 24 27
18 16 15 14 16 15 12 10 4 3 13 18 8 4 4 6 4 -1 3 3 6 18 23 24 25 27 26 24 25 26 27 27 28 27 26 29 30 28 28 28 28 28 24 25
17 16 12 11 10 11 11 11 9 7 7 7 6 4 4 4 -1 1 4 2 7 17 22 24 25 27 26 25 26 27 28 28 28 27 26 28 29 28 28 27 27 27 26 24
17 17 11 11 8 7 7 8 8 9 8 7 6 5 3 2 2 3 1 0 8 17 22 25 26 27 27 26 26 28 28 28 28 27 26 27 29 28 28 28 27 27 27 26
16 18 15 15 10 10 11 11 9 8 8 6 5 6 2 6 4 1 2 2 9 18 23 25 26 27 28 27 28 28 28 28 28 27 26 26 28 28 29 29 27 27 27 27
15 16 21 22 13 17 13 8 10 10 9 9 8 8 6 5 4 5 7 3 11 20 24 26 27 28 28 28 28 29 28 28 28 28 27 26 27 28 29 29 29 27 27 27
17 20 27 24 16 13 13 9 7 8 11 11 9 9 7 10 6 1 5 8 16 22 25 27 28 29 29 28 29 30 28 28 28 28 28 26 26 26 29 30 29 28 27 28
14 16 25 20 20 15 12 11 9 8 6 7 10 8 7 8 -3 -1 5 10 19 23 26 28 29 30 29 30 30 30 29 28 29 29 29 27 26 25 28 30 30 30 29 28
13 18 22 20 24 21 12 10 7 16 17 6 6 5 7 4 3 6 8 16 22 24 27 29 30 29 28 30 30 30 30 29 30 29 28 26 25 24 26 29 31 31 30 30
18 21 20 23 24 15 11 7 9 20 10 7 3 5 7 5 8 7 12 20 24 25 27 28 29 29 28 29 29 30 30 30 30 28 28 26 25 24 24 27 30 29 30 29
15 26 32 27 23 20 11 17 14 14 11 8 8 9 8 8 8 7 15 21 23 25 27 28 29 29 29 29 30 31 31 31 29 27 27 25 24 24 24 24 27 28 29 29
16 20 18 18 21 20 13 14 13 13 12 11 11 10 9 8 6 10 17 21 23 25 27 28 29 28 29 29 30 31 32 32 29 26 27 25 25 25 24 24 24 26 28 28
16 16 17 18 18 19 19 14 14 12 12 11 12 11 9 8 4 13 19 22 24 25 27 28 29 29 29 30 30 31 32 32 29 26 27 25 26 25 24 23 27 24 26 31
16 14 14 12 17 19 20 18 15 13 12 12 12 11 10 7 8 17 20 23 25 25 27 28 29 30 30 30 29 31 32 32 30 27 27 26 26 26 25 23 23 29 28 29
Wind_Speed
2 1 6 7 7 6 5 4 2 1 2 6 9 7 8 5 3 9 15 15 16 18 17 17 17 18 18 18 18 20 21 22 20 18 20 21 21 19 17 17 19 20 21 22
3 6 3 2 6 3 2 4 1 2 3 5 5 8 8 7 3 6 14 15 17 20 19 18 18 18 18 19 19 19 20 21 19 18 18 17 18 17 19 18 20 21 21 18
5 4 1 2 5 4 1 6 6 5 2 9 7 11 9 9 5 4 11 11 16 20 20 18 19 19 18 19 20 20 20 21 19 20 18 18 19 18 16 18 19 19 20 20
7 3 1 1 1 9 6 5 5 6 5 4 4 5 10 8 5 6 12 13 15 17 16 16 19 19 18 18 18 19 20 21 19 20 19 21 17 19 16 18 19 19 19 21
4 3 7 3 4 7 4 4 4 4 8 7 7 6 9 6 5 10 14 12 15 17 16 16 17 17 17 17 17 18 19 19 19 20 18 16 17 17 16 17 21 21 18 19
6 3 4 5 2 2 2 2 1 3 5 6 6 2 8 4 2 10 13 12 15 17 15 15 15 16 17 16 17 17 19 20 20 20 20 20 19 19 18 19 19 20 18 17
5 4 2 5 5 4 7 10 4 4 5 6 5 4 6 8 4 8 11 12 15 16 15 15 16 16 16 17 17 17 19 20 20 21 21 21 21 20 19 17 18 23 21 19
4 4 4 7 4 4 5 5 4 6 7 10 4 3 5 8 1 6 7 9 13 15 14 14 15 15 15 16 17 18 19 20 21 21 22 20 21 18 18 18 16 18 20 21
3 2 4 5 5 3 3 2 1 5 4 6 3 5 5 5 3 8 7 8 12 15 14 13 14 14 16 16 17 18 19 19 20 21 21 21 22 25 24 24 16 16 19 21
2 2 1 2 2 3 3 1 3 3 6 7 6 4 3 6 4 9 9 10 13 14 13 13 13 14 15 15 15 16 17 19 20 20 20 20 22 20 21 21 22 18 20 23
2 3 4 3 3 2 2 2 1 3 2 4 8 3 7 7 5 7 8 8 11 13 13 12 13 13 14 14 15 16 17 19 20 20 20 21 21 17 21 20 21 20 19 22
1 3 3 3 3 1 2 3 3 2 1 3 4 5 4 6 4 3 6 7 10 10 11 11 12 13 15 15 15 16 17 18 19 20 20 20 19 17 19 21 22 22 19 19
2 3 3 4 3 3 5 5 2 3 0 7 3 4 5 3 4 2 5 6 9 11 11 11 11 14 15 15 16 16 18 18 18 19 20 20 19 19 20 21 23 22 23 18
1 3 6 5 3 1 4 8 9 7 4 3 14 14 6 4 2 3 3 5 9 9 9 10 11 13 15 14 15 16 17 18 18 19 19 19 20 20 20 18 20 21 21 21
3 4 3 5 3 5 8 8 12 16 12 7 2 15 16 7 1 1 1 3 7 9 9 9 11 13 15 15 16 16 17 17 18 18 18 18 18 18 19 18 17 20 20 21
4 1 3 4 3 6 12 12 13 17 17 20 21 21 5 5 3 2 2 3 6 8 9 8 10 12 15 15 15 16 16 17 17 17 18 17 18 17 18 18 19 18 20 21
7 3 2 2 2 6 11 16 17 9 10 9 8 2 8 4 3 4 3 2 5 7 6 7 9 10 12 14 15 16 16 16 16 17 17 17 17 18 17 19 18 18 17 18
6 5 1 4 2 3 3 3 3 17 10 16 12 5 6 3 3 3 4 1 4 6 5 5 7 9 11 13 13 14 14 15 16 17 17 17 17 17 16 17 19 17 16 16
3 4 2 3 6 8 3 5 6 7 3 16 18 11 8 5 3 6 8 2 2 4 3 4 5 7 9 11 13 14 13 14 15 17 17 17 17 16 16 15 16 17 16 15
1 1 3 2 3 4 3 9 5 4 4 10 14 13 13 9 4 7 10 4 0 2 2 4 6 6 8 11 13 13 13 13 16 17 17 16 16 15 14 14 15 15 15 14
6 4 9 9 6 7 6 13 8 1 0 14 14 14 15 10 2 12 8 4 1 1 1 3 3 5 7 8 10 10 11 12 15 15 15 15 15 14 13 13 14 15 15 14
12 13 8 6 6 7 17 11 7 5 10 14 13 14 15 8 10 9 7 4 2 1 0 1 2 4 4 7 9 10 10 13 14 14 14 14 14 13 12 13 13 14 15 14
8 8 6 12 5 3 28 2 7 9 14 14 15 14 14 13 11 10 7 5 3 2 1 1 2 3 4 5 7 10 12 14 13 12 13 13 13 12 12 13 13 13 15 15
9 4 4 2 6 11 20 10 8 9 12 14 14 16 16 14 12 10 7 6 4 3 2 2 2 3 4 5 5 7 10 12 12 10 11 11 11 13 12 11 12 12 13 14
3 15 9 8 8 3 12 23 16 14 14 16 15 17 16 14 13 10 8 6 5 2 2 4 2 3 4 5 5 6 9 11 10 9 9 9 9 11 10 9 5 9 9 9
13 11 12 8 9 3 4 25 24 22 23 21 21 18 15 14 13 10 8 7 6 4 3 4 4 3 4 5 5 7 8 9 10 8 9 8 9 10 10 10 8 3 1 3
Wind_Direction
32 71 55 30 351 328 311 306 313 105 153 253 245 232 198 200 284 355 351 353 351 353 354 358 0 357 358 1 360 357 355 355 352 350 346 340 338 336 329 328 333 333 320 329
174 78 55 359 20 339 285 297 10 115 173 244 244 230 195 214 264 344 352 347 350 350 355 359 359 359 358 359 357 355 355 354 353 349 343 335 331 338 336 341 333 323 323 325
38 58 69 276 13 320 17 341 327 300 187 247 267 238 195 220 218 305 356 358 356 353 351 355 356 359 359 360 356 353 353 352 350 354 341 341 338 337 336 342 329 325 331 325
69 62 349 280 41 346 287 357 292 248 232 330 201 320 186 172 197 6 357 2 355 353 354 354 356 356 356 360 353 351 353 356 349 351 343 346 339 333 334 335 323 328 325 325
90 44 18 23 356 338 358 336 292 240 240 300 193 263 119 170 203 350 358 357 355 353 356 356 358 352 357 356 352 352 354 356 346 347 348 344 335 333 333 335 329 336 328 324
93 84 35 358 320 350 340 270 222 233 257 249 116 288 139 156 16 350 351 350 355 354 356 356 354 353 352 354 353 354 355 354 348 346 349 347 343 340 341 339 335 326 328 325
152 65 94 1 282 214 262 284 285 239 225 333 125 257 45 131 64 1 344 347 351 355 355 354 352 354 344 350 352 355 355 352 349 350 351 349 346 343 343 343 334 326 328 329
252 211 3 7 27 314 352 339 3 295 318 317 151 286 113 135 98 12 348 345 351 354 355 352 352 353 344 349 352 353 353 350 351 352 351 349 349 349 346 346 339 329 327 331
283 144 116 60 27 322 29 354 16 278 236 281 217 124 148 169 267 4 349 352 356 353 353 351 351 357 348 353 351 350 349 350 352 352 350 351 356 358 340 337 351 338 333 333
55 224 161 121 266 65 347 60 268 200 327 313 309 309 45 183 338 354 353 349 353 350 352 351 350 353 351 353 351 348 348 349 349 349 348 352 6 350 332 326 352 357 343 339
295 255 127 196 209 3 190 204 249 280 290 298 309 75 59 110 21 350 348 346 352 350 350 348 348 348 351 353 350 348 350 350 351 349 347 353 5 350 338 341 354 358 349 345
71 301 270 52 109 20 297 281 281 261 247 262 264 298 115 105 34 344 324 342 349 348 350 348 345 360 346 353 352 351 349 351 351 347 349 1 355 353 348 354 355 359 0 358
143 200 261 201 200 205 247 191 185 123 150 237 278 332 144 156 298 342 311 340 346 352 353 349 349 4 340 352 349 351 349 351 350 348 353 5 347 352 1 3 354 360 2 8
267 273 257 289 335 86 211 206 203 210 237 279 249 287 171 224 314 300 302 349 353 351 351 347 353 358 338 346 349 350 349 351 348 349 355 5 351 354 4 8 360 349 7 11
241 271 271 266 260 237 257 239 203 213 236 244 328 298 313 345 173 284 308 339 348 354 355 351 350 353 337 351 351 347 349 348 349 351 355 1 353 360 359 9 9 351 8 15
193 260 295 276 206 245 261 250 233 233 249 264 274 287 104 117 129 230 257 340 347 354 350 350 351 352 334 350 346 346 347 348 347 352 355 357 355 3 359 360 8 11 11 6
181 212 259 275 172 286 273 241 210 218 213 223 255 48 161 192 211 240 234 341 347 346 347 342 351 348 331 346 344 345 342 348 347 353 355 357 356 1 6 354 7 10 16 12
183 185 189 277 266 277 112 61 250 220 243 222 243 194 210 219 178 209 182 322 337 341 340 333 352 339 330 346 345 341 343 348 348 355 355 355 357 360 10 3 356 6 11 8
300 162 223 252 258 296 208 209 181 184 291 219 225 217 198 167 200 208 165 173 341 327 325 341 336 338 339 343 351 338 344 351 352 354 354 353 356 358 2 13 348 360 5 7
151 239 220 189 253 255 91 152 145 150 254 174 188 190 182 171 228 123 163 168 153 313 315 336 343 345 335 356 335 346 345 352 352 350 348 351 352 359 1 7 349 2 2 12
166 188 210 219 254 276 126 149 149 144 254 165 177 174 172 187 53 120 138 145 111 308 341 330 359 332 336 353 331 340 343 353 342 343 345 350 354 358 2 356 356 358 5 2
179 167 189 190 220 267 150 137 197 137 136 158 169 169 170 157 143 144 146 148 185 219 194 263 315 325 329 351 338 345 340 338 339 342 348 352 358 2 2 0 357 1 359 3
208 204 190 202 223 102 181 25 157 159 161 172 170 168 165 162 167 164 162 168 181 216 189 206 289 299 328 6 356 341 338 328 336 345 350 352 0 1 7 7 1 7 5 0
216 172 222 267 189 204 193 188 177 178 167 171 169 163 163 165 168 168 165 170 186 179 197 206 241 275 321 343 348 340 331 323 331 344 349 352 356 358 6 15 11 13 11 5
139 157 196 248 239 185 219 206 187 177 161 163 162 163 163 164 171 172 166 168 184 186 176 204 229 255 294 315 329 334 339 323 337 339 347 360 353 356 359 8 24 21 27 8
186 182 186 220 185 197 156 191 179 175 172 169 165 161 162 169 170 175 166 164 182 186 176 210 227 251 272 300 317 331 337 324 334 340 347 356 349 355 356 354 359 160 120 3